Regional Weather Roundup
Issued by NWS Newport/Morehead, NC

Current Version | Previous Version | Graphics & Text | Print | Product List | Glossary On
Versions: 1 2 3 4 5 6 7 8 9 10 11 12 13 14 15 16 17 18 19 20 21 22 23 24 25 26 27 28 29 30 31 32 33 34 35 36 37 38 39 40 41 42 43 44 45 46 47 48 49 50
000 ASUS42 KMHX 212025 RWRMHX WEATHER ROUNDUP FOR EASTERN NORTH CAROLINA NATIONAL WEATHER SERVICE NEWPORT/MOREHEAD CITY NC 400 PM EDT MON AUG 21 2017 NOTE: "FAIR" INDICATES FEW OR NO CLOUDS BELOW 12,000 FEET WITH NO SIGNIFICANT WEATHER AND/OR OBSTRUCTIONS TO VISIBILITY NCZ015>017-031-032-045>047-102-103-212100- NORTH COAST CITY SKY/WX TMP DP RH WIND PRES REMARKS EDENTON PTSUNNY 87 78 73 CALM 30.17S HX 100 ELIZABETH CITY SUNNY 87 76 69 E9 30.17F KITTY HAWK CLEAR 83 76 78 CALM 30.16F MANTEO SUNNY 84 76 78 SE5 30.17F $$ NCZ045>047-081-094-103-104-212100- CENTRAL COAST CITY SKY/WX TMP DP RH WIND PRES REMARKS FRISCO CLOUDY 85 77 77 S5 30.16F $$ NCZ095-097-098-100-101-212100- SOUTHERN COAST CITY SKY/WX TMP DP RH WIND PRES REMARKS BEAUFORT MOSUNNY 84 77 79 SE6 30.16F CEDAR ISLAND NOT AVBL JACKSONVILLE PTSUNNY 85 76 74 SE8 30.15F PINEY ISLAND MOCLDY N/A N/A N/A E6 30.15F WILMINGTON PTSUNNY 84 76 76 SE7 30.15F $$ NCZ011>013-027>030-043-044-078>080-089-090>093-098-212100- COASTAL PLAIN CITY SKY/WX TMP DP RH WIND PRES REMARKS AHOSKIE N/A 86 72 64 SE6 30.17F CLINTON SUNNY 89 73 59 E3 30.16S ELIZABETHTOWN NOT AVBL GOLDSBORO MOSUNNY 89 74 59 SE5 30.15F GREENVILLE SUNNY 88 72 58 E7 30.17F HAVELOCK SUNNY 87 75 67 SE8 30.17F KENANSVILLE MOSUNNY 88 73 62 SE5 30.16S KINSTON MOSUNNY 90 72 55 E8 30.16F NEW BERN SUNNY 86 77 74 E8 30.17F RICHLANDS SUNNY 87 77 72 SE6 30.16F ROCKY MOUNT SUNNY 87 73 62 SE5 30.17F WASHINGTON SUNNY 87 72 60 SE6 30.16F WHITEVILLE MOSUNNY 87 74 66 SE8 30.15S $$ AMZ130-135-150-152-154-156-158-170-250-252-270-ANZ085-086-088-633-658-670-212100- MARINE OBSERVATIONS STATION/POSITION TIME TEMP WIND PRES WAVE SWELL AIR SEA DIR/SP/G HT/PER HT/PER (UTC) (F) (DEG/KT/KT) (MB) (FT/S) (FT/S) CHESAPEAKE LIGHT NOT AVBL 64 E VA BEACH 1950 79 80 100/ 4/ 6 1022.4 2/ 8 2/ 8 DUCK 2000 84 77 100/ 6/ 7 1021.3 2 E DUCK 1930 82 N/A 2/ 8 OREGON INLET 2000 82 80 40/ 5/ 8 1021.5 13E OREGON INLT 1948 81 N/A 2/ 8 2/ 8 HATTERAS CG 2000 84 80 140/ 3/ 5 1021.3 DIAMOND BUOY 1950 82 85 190/ 4/ 4 1021.2 2/ 9 2/ 9 CAPE LOOKOUT 2000 81 140/ 4/ 5 1020.9 BEAUFORT LAB 2000 82 82 140/ 5/ 7 1020.7 30 SE NEW RVR IN 2008 81 84 130/ 8/ 12 1021.2 30 SE NEW RVR IN 1943 84 N/A 3/ 8 2/11 27 SE WRIGHTSVLE 2008 83 84 120/ 8/ 10 1021.0 5 SE WRIGHTSVLE 2008 82 83 130/ 8/ 12 1020.8 225 S CAPE HAT 1950 83 85 100/ 6/ 8 1020.9 3/ 8 3/ 8 41 SE CHARLESTON 2000 83 85 100/ 10/ 12 1020.5 $$

USA.gov is the U.S. government's official web portal to all federal, state and local government web resources and services.